277P/LINEAR (2020)

Japanese version
Home page
Updated on August 28, 2020

---------------------------------------------------------------------

* Profile

* Orbital Elements

Epoch 2020 Dec. 17.0 TT = JDT 2459200.5
T 2020 Dec. 30.17267 TT                                 Rudenko
q   1.9044535            (2000.0)            P               Q
n   0.13036157     Peri.  152.31872     +0.34418716     -0.89398943
a   3.8521483      Node   276.34483     +0.79924776     +0.43933027
e   0.5056126      Incl.   16.77892     +0.49268471     -0.08815790
P   7.56
From 180 observations 2005 Sept. 15-2020 Aug. 21, mean residual 0".7.

* Finding Charts

* Magnitudes Graph

        m1 = 10.5 + 5 log d + 20 log r

---------------------------------------------------------------------

The orbital elements are published on M.P.E.C. 2020-Q175.
The charts are made with StellaNavigator Ver.10 (AstroArts).
The magnitudes graphs are made with Comet for Windows.

---------------------------------------------------------------------

Copyright(C) Seiichi Yoshida (comet@aerith.net). All rights reserved.